Weather History for KAEG - July, 2013

Change the Weather History Date:

Tuesday, July 30, 2013

  Actual Average Record
Temperature  
Mean Temperature 76 °F -  
Max Temperature 90 °F - - ()
Min Temperature 62 °F - - ()
Cooling Degree Days 10    
Growing Degree Days 26 (Base 50)    
Moisture  
Dew Point 45 °F    
Average Humidity 38    
Maximum Humidity 55    
Minimum Humidity 21    
Precipitation  
Precipitation 0.00 in - - ()
Sea Level Pressure  
Sea Level Pressure 30.30 in    
Wind  
Wind Speed 8 mph (WNW)    
Max Wind Speed 12 mph    
Max Gust Speed -    
Visibility 10 miles    
Events      
T = Trace of Precipitation, MM = Missing Value Source: NWS Daily Summary

Daily Weather History Graph

Daily Weather History Graph

Search for Another Location

Airport or City:

Trip Planner

Search our weather history database for the weather conditions in past years. The results will help you decide how hot, cold, wet, or windy it might be!

Date:

Astronomy

Jul. 30, 2013 Rise Set
Actual Time 6:15 AM MDT 8:11 PM MDT
Civil Twilight 5:47 AM MDT 8:39 PM MDT
Nautical Twilight 5:13 AM MDT 9:13 PM MDT
Astronomical Twilight 4:36 AM MDT 9:49 PM MDT
Moon 12:32 AM MDT 2:35 PM MDT
Length of Visible Light 14h 52m
Length of Day
13h 56m
Last Quarter, 40% of the Moon is Illuminated
Jul 30
Last Quarter
Aug 6
New
Aug 14
First Quarter
Aug 20
Full
Aug 28
Last Quarter

Hourly Weather History & Observations

Time (MDT) Temp. Dew Point Humidity Pressure Visibility Wind Dir Wind Speed Gust Speed Precip Events Conditions
12:15 AM 71.6 °F 42.8 °F 35% 30.27 in 10.0 mi NNW 9.2 mph - N/A   Unknown
12:35 AM 71.6 °F 42.8 °F 35% 30.26 in 10.0 mi NNW 11.5 mph - N/A   Unknown
12:55 AM 68.0 °F 42.8 °F 40% 30.26 in 10.0 mi NNW 9.2 mph - N/A   Unknown
1:15 AM 66.2 °F 44.6 °F 46% 30.27 in 10.0 mi NW 9.2 mph - N/A   Unknown
1:35 AM 66.2 °F 44.6 °F 46% 30.27 in 10.0 mi NNW 9.2 mph - N/A   Unknown
1:55 AM 66.2 °F 42.8 °F 43% 30.27 in 10.0 mi NW 9.2 mph - N/A   Unknown
2:15 AM 68.0 °F 42.8 °F 40% 30.27 in 10.0 mi NW 9.2 mph - N/A   Unknown
2:35 AM 66.2 °F 42.8 °F 43% 30.26 in 10.0 mi NW 10.4 mph - N/A   Unknown
2:55 AM 66.2 °F 42.8 °F 43% 30.26 in 10.0 mi NW 9.2 mph - N/A   Unknown
3:15 AM 66.2 °F 44.6 °F 46% 30.27 in 10.0 mi NW 9.2 mph - N/A   Unknown
3:35 AM 66.2 °F 44.6 °F 46% 30.27 in 10.0 mi NW 9.2 mph - N/A   Unknown
3:55 AM 64.4 °F 44.6 °F 49% 30.28 in 10.0 mi NW 6.9 mph - N/A   Unknown
4:15 AM 62.6 °F 44.6 °F 52% 30.28 in 10.0 mi Calm Calm - N/A   Unknown
4:35 AM 64.4 °F 44.6 °F 49% 30.29 in 10.0 mi Calm Calm - N/A   Unknown
4:55 AM 64.4 °F 44.6 °F 49% 30.30 in 10.0 mi NNW 3.5 mph - N/A   Unknown
5:15 AM 64.4 °F 44.6 °F 49% 30.30 in 10.0 mi WNW 3.5 mph - N/A   Unknown
5:35 AM 62.6 °F 44.6 °F 52% 30.32 in 10.0 mi Calm Calm - N/A   Unknown
6:50 AM 62.6 °F 46.4 °F 55% 30.35 in 10.0 mi Variable 4.6 mph - N/A   Partly Cloudy
7:50 AM 68.0 °F 46.4 °F 46% 30.36 in 10.0 mi Variable 5.8 mph - N/A   Partly Cloudy
8:50 AM 75.2 °F 46.4 °F 36% 30.38 in 10.0 mi NE 9.2 mph - N/A   Partly Cloudy
9:50 AM 75.2 °F 44.6 °F 34% 30.38 in 10.0 mi NE 9.2 mph - N/A   Partly Cloudy
10:51 AM 78.8 °F 44.6 °F 30% 30.38 in 10.0 mi ENE 5.8 mph - N/A   Partly Cloudy
2:50 PM 87.8 °F 44.6 °F 22% 30.33 in 10.0 mi NW 9.2 mph - N/A   Scattered Clouds
3:50 PM 87.8 °F 44.6 °F 22% 30.31 in 10.0 mi Variable 4.6 mph - N/A   Scattered Clouds
4:50 PM 87.8 °F 44.6 °F 22% 30.29 in 10.0 mi SW 6.9 mph - N/A   Scattered Clouds
5:50 PM 89.6 °F 44.6 °F 21% 30.28 in 10.0 mi WSW 6.9 mph - N/A   Scattered Clouds
6:50 PM 87.8 °F 42.8 °F 21% 30.27 in 10.0 mi WSW 4.6 mph - N/A   Scattered Clouds
7:50 PM 87.8 °F 42.8 °F 21% 30.27 in 10.0 mi West 5.8 mph - N/A   Scattered Clouds
8:50 PM 80.6 °F 44.6 °F 28% 30.29 in 10.0 mi South 8.1 mph - N/A   Scattered Clouds
9:50 PM 75.2 °F 46.4 °F 36% 30.30 in 10.0 mi SSW 6.9 mph - N/A   Clear
10:15 PM 75.4 °F 46.9 °F 36% 30.31 in 10.0 mi SW 5.8 mph - N/A   Clear
10:35 PM 75.4 °F 47.1 °F 37% 30.31 in 10.0 mi SW 8.1 mph - N/A   Clear
10:55 PM 78.8 °F 45.3 °F 31% 30.32 in 10.0 mi SW 8.1 mph - N/A   Scattered Clouds
11:15 PM 77.2 °F 45.9 °F 33% 30.33 in 10.0 mi West 5.8 mph - N/A   Mostly Cloudy
11:35 PM 75.2 °F 46.4 °F 36% 30.32 in 10.0 mi West 9.2 mph - N/A   Scattered Clouds
11:55 PM 73.8 °F 46.8 °F 38% 30.31 in 10.0 mi NW 3.5 mph - N/A   Scattered Clouds